When you browse on this site, cookies collect data to enhance your experience and personalize the content and advertising you see.
Visit our Privacy Policy to learn more. By continuing to use the site, you agree to this use of cookies and data.
  • In Hungary
  • List of Countries
  • For 7 days
  • Water Temperature
  • Weather Map
  • News
  • Weather Widgets
  • user-avatar
    Login

    Hourly Weather Schuche

    Today, 19 October, Saturday

    Time Temperature Precipitation Wind Pressure Humidity
    00:00 +9°C° 0 mm 0 mps 747 mmHg 91%
    01:00 +9°C° 0 mm 0 mps 747 mmHg 91%
    02:00 +9°C° 0 mm 0 mps 747 mmHg 91%
    03:00 +10°C° 0 mm 1 mps 747 mmHg 91%
    04:00 +10°C° 0 mm 1 mps 747 mmHg 92%
    05:00 +10°C° 0 mm 1 mps 747 mmHg 92%
    06:00 +10°C° 0 mm 1 mps 748 mmHg 91%
    07:00 +11°C° 0 mm 1 mps 748 mmHg 89%
    08:00 +10°C° 0 mm 2 mps 748 mmHg 88%
    09:00 +13°C° 0 mm 2 mps 748 mmHg 82%
    10:00 +14°C° 0 mm 2 mps 748 mmHg 76%
    11:00 +15°C° 0 mm 2 mps 748 mmHg 71%
    12:00 +16°C° 0 mm 2 mps 748 mmHg 69%
    13:00 +16°C° 0 mm 2 mps 748 mmHg 67%
    14:00 +16°C° 0 mm 2 mps 748 mmHg 65%
    15:00 +15°C° 0 mm 2 mps 748 mmHg 71%
    16:00 +14°C° 0 mm 2 mps 748 mmHg 76%
    17:00 +13°C° 0 mm 2 mps 748 mmHg 81%
    18:00 +12°C° 0 mm 2 mps 748 mmHg 82%
    19:00 +12°C° 0 mm 2 mps 748 mmHg 82%
    20:00 +12°C° 0 mm 2 mps 748 mmHg 83%
    21:00 +12°C° 0 mm 2 mps 748 mmHg 83%
    22:00 +10°C° 0 mm 2 mps 748 mmHg 83%
    23:00 +10°C° 0 mm 2 mps 748 mmHg 83%

    Tomorrow, 20 October, Sunday

    Time Temperature Precipitation Wind Pressure Humidity
    00:00 +10°C° 0 mm 2 mps 749 mmHg 84%
    01:00 +10°C° 0 mm 2 mps 749 mmHg 84%
    02:00 +10°C° 0 mm 2 mps 749 mmHg 85%
    03:00 +9°C° 0 mm 2 mps 749 mmHg 86%
    04:00 +9°C° 0 mm 2 mps 749 mmHg 87%
    05:00 +9°C° 0 mm 2 mps 749 mmHg 88%
    06:00 +10°C° 0 mm 2 mps 749 mmHg 86%
    07:00 +10°C° 0 mm 3 mps 749 mmHg 85%
    08:00 +11°C° 0 mm 3 mps 749 mmHg 83%
    09:00 +12°C° 0 mm 3 mps 749 mmHg 80%
    10:00 +14°C° 0 mm 3 mps 749 mmHg 76%
    11:00 +16°C° 0 mm 3 mps 749 mmHg 72%
    12:00 +16°C° 0 mm 3 mps 749 mmHg 71%
    13:00 +17°C° 0 mm 3 mps 749 mmHg 69%
    14:00 +17°C° 0 mm 3 mps 749 mmHg 67%
    15:00 +16°C° 0 mm 3 mps 749 mmHg 72%
    16:00 +14°C° 0 mm 3 mps 749 mmHg 77%
    17:00 +13°C° 0 mm 3 mps 749 mmHg 82%
    18:00 +13°C° 0 mm 3 mps 749 mmHg 83%
    19:00 +12°C° 0 mm 3 mps 749 mmHg 83%
    20:00 +12°C° 0 mm 3 mps 749 mmHg 84%
    21:00 +12°C° 0 mm 3 mps 749 mmHg 84%
    22:00 +12°C° 0 mm 3 mps 749 mmHg 84%
    23:00 +11°C° 0 mm 3 mps 749 mmHg 84%

    Day after tomorrow, 21 October, Monday

    Time Temperature Precipitation Wind Pressure Humidity
    00:00 +11°C° 0 mm 3 mps 749 mmHg 84%
    01:00 +11°C° 0 mm 3 mps 749 mmHg 84%
    02:00 +11°C° 0 mm 3 mps 749 mmHg 84%
    03:00 +10°C° 0 mm 3 mps 749 mmHg 85%
    04:00 +10°C° 0 mm 3 mps 749 mmHg 85%
    05:00 +9°C° 0 mm 3 mps 748 mmHg 86%
    06:00 +10°C° 0 mm 3 mps 748 mmHg 83%
    07:00 +11°C° 0 mm 3 mps 749 mmHg 79%
    08:00 +11°C° 0 mm 4 mps 749 mmHg 76%
    09:00 +13°C° 0 mm 4 mps 749 mmHg 71%
    10:00 +14°C° 0 mm 4 mps 749 mmHg 67%
    11:00 +15°C° 0 mm 5 mps 748 mmHg 63%
    12:00 +16°C° 0 mm 5 mps 748 mmHg 62%
    13:00 +16°C° 0 mm 5 mps 748 mmHg 61%
    14:00 +17°C° 0 mm 5 mps 748 mmHg 60%
    15:00 +15°C° 0 mm 4 mps 747 mmHg 65%
    16:00 +14°C° 0 mm 4 mps 747 mmHg 70%
    17:00 +13°C° 0 mm 4 mps 747 mmHg 75%
    18:00 +13°C° 0 mm 4 mps 747 mmHg 76%
    19:00 +12°C° 0 mm 4 mps 747 mmHg 77%
    20:00 +12°C° 0 mm 4 mps 747 mmHg 78%
    21:00 +12°C° 0 mm 4 mps 747 mmHg 79%
    22:00 +12°C° 0 mm 4 mps 747 mmHg 80%
    23:00 +11°C° 0 mm 4 mps 747 mmHg 80%

    22 October, Tuesday

    Time Temperature Precipitation Wind Pressure Humidity
    00:00 +11°C° 0 mm 3 mps 747 mmHg 81%
    01:00 +11°C° 0 mm 3 mps 747 mmHg 82%
    02:00 +10°C° 0 mm 3 mps 747 mmHg 83%
    03:00 +10°C° 0 mm 3 mps 747 mmHg 83%
    04:00 +10°C° 0 mm 3 mps 747 mmHg 84%
    05:00 +10°C° 0 mm 3 mps 747 mmHg 84%
    06:00 +10°C° 0 mm 3 mps 746 mmHg 82%
    07:00 +11°C° 0 mm 4 mps 746 mmHg 79%
    08:00 +11°C° 0 mm 4 mps 746 mmHg 76%
    09:00 +12°C° 0 mm 4 mps 746 mmHg 73%
    10:00 +13°C° 0 mm 4 mps 746 mmHg 70%
    11:00 +14°C° 0 mm 4 mps 746 mmHg 67%
    12:00 +15°C° 0 mm 4 mps 746 mmHg 66%
    13:00 +15°C° 0 mm 4 mps 746 mmHg 66%
    14:00 +17°C° 0 mm 3 mps 746 mmHg 65%
    15:00 +16°C° 0 mm 3 mps 746 mmHg 69%
    16:00 +15°C° 0 mm 2 mps 746 mmHg 74%
    17:00 +14°C° 0 mm 2 mps 746 mmHg 78%
    18:00 +14°C° 0 mm 2 mps 746 mmHg 79%
    19:00 +13°C° 0 mm 2 mps 746 mmHg 81%
    20:00 +13°C° 0 mm 2 mps 746 mmHg 82%
    21:00 +13°C° 0 mm 2 mps 746 mmHg 85%
    22:00 +12°C° 0 mm 2 mps 746 mmHg 87%
    23:00 +12°C° 0 mm 1 mps 746 mmHg 90%

    23 October, Wednesday

    Time Temperature Precipitation Wind Pressure Humidity
    00:00 +12°C° 0 mm 1 mps 746 mmHg 91%
    01:00 +11°C° 0 mm 1 mps 746 mmHg 92%
    02:00 +11°C° 0 mm 1 mps 746 mmHg 93%
    03:00 +11°C° 0 mm 1 mps 747 mmHg 94%
    04:00 +11°C° 0 mm 1 mps 747 mmHg 94%
    05:00 +11°C° 0 mm 1 mps 747 mmHg 95%
    06:00 +10°C° 0 mm 2 mps 747 mmHg 94%
    07:00 +12°C° 0 mm 2 mps 747 mmHg 94%
    08:00 +12°C° 0 mm 2 mps 748 mmHg 93%
    09:00 +13°C° 0 mm 2 mps 748 mmHg 88%
    10:00 +15°C° 0 mm 2 mps 748 mmHg 82%
    11:00 +16°C° 0 mm 3 mps 748 mmHg 77%
    12:00 +16°C° 0 mm 3 mps 748 mmHg 74%
    13:00 +17°C° 0 mm 3 mps 748 mmHg 71%
    14:00 +17°C° 0 mm 4 mps 748 mmHg 69%
    15:00 +16°C° 0 mm 3 mps 748 mmHg 74%
    16:00 +14°C° 0 mm 3 mps 748 mmHg 80%
    17:00 +12°C° 0 mm 3 mps 748 mmHg 85%
    18:00 +11°C° 0 mm 3 mps 748 mmHg 87%
    19:00 +12°C° 0 mm 2 mps 748 mmHg 88%
    20:00 +10°C° 0 mm 2 mps 748 mmHg 90%
    21:00 +9°C° 0 mm 2 mps 748 mmHg 90%
    22:00 +9°C° 0 mm 2 mps 748 mmHg 90%
    23:00 +9°C° 0 mm 2 mps 749 mmHg 91%

    24 October, Thursday

    Time Temperature Precipitation Wind Pressure Humidity
    00:00 +9°C° 0 mm 2 mps 749 mmHg 91%
    01:00 +9°C° 0 mm 2 mps 749 mmHg 92%
    02:00 +8°C° 0 mm 2 mps 749 mmHg 93%
    03:00 +8°C° 0 mm 2 mps 749 mmHg 93%
    04:00 +8°C° 0 mm 2 mps 749 mmHg 94%
    05:00 +7°C° 0 mm 2 mps 749 mmHg 94%
    06:00 +8°C° 0 mm 2 mps 749 mmHg 92%
    07:00 +9°C° 0 mm 1 mps 750 mmHg 90%
    08:00 +9°C° 0 mm 1 mps 750 mmHg 88%
    09:00 +10°C° 0 mm 1 mps 750 mmHg 81%
    10:00 +11°C° 0 mm 1 mps 750 mmHg 74%
    11:00 +12°C° 0 mm 1 mps 750 mmHg 67%
    12:00 +13°C° 0 mm 1 mps 750 mmHg 64%
    13:00 +13°C° 0 mm 1 mps 750 mmHg 61%
    14:00 +13°C° 0 mm 1 mps 749 mmHg 58%
    15:00 +12°C° 0 mm 1 mps 749 mmHg 63%
    16:00 +10°C° 0 mm 0 mps 749 mmHg 67%
    17:00 +9°C° 0 mm 0 mps 749 mmHg 72%
    18:00 +9°C° 0 mm 0 mps 749 mmHg 73%
    19:00 +9°C° 0 mm 0 mps 749 mmHg 74%
    20:00 +9°C° 0 mm 1 mps 749 mmHg 76%
    21:00 +9°C° 0 mm 1 mps 749 mmHg 78%
    22:00 +8°C° 0 mm 2 mps 749 mmHg 80%
    23:00 +8°C° 0 mm 2 mps 749 mmHg 83%
    Show more